Time,TemperatureF,DewpointF,PressureIn,WindDirection,WindDirectionDegrees,WindSpeedMPH,WindSpeedGustMPH,Humidity,HourlyPrecipIn,Conditions,Clouds,dailyrainin,SoftwareType,DateUTC
2013-03-17 00:00:00,20.3,14.5,28.84,North,0,0.0,0.0,78,0.00,,,0.00,WUHU216HW,2013-03-17 05:00:00,
2013-03-17 00:01:00,20.3,14.5,28.84,North,0,0.0,0.0,78,0.00,,,0.00,WUHU216HW,2013-03-17 05:01:00,
2013-03-17 00:05:00,20.3,14.5,28.84,North,0,0.0,0.0,78,0.00,,,0.00,WUHU216HW,2013-03-17 05:05:00,
2013-03-17 00:06:00,20.3,14.5,28.84,North,0,0.0,0.0,78,0.00,,,0.00,WUHU216HW,2013-03-17 05:06:00,
2013-03-17 00:07:00,20.3,14.5,28.84,North,0,0.0,0.0,78,0.00,,,0.00,WUHU216HW,2013-03-17 05:07:00,
2013-03-17 00:29:00,19.8,14.3,28.84,North,0,0.0,0.0,79,0.00,,,0.00,WUHU216HW,2013-03-17 05:29:00,
2013-03-17 00:30:00,19.8,14.3,28.84,North,0,0.0,0.0,79,0.00,,,0.00,WUHU216HW,2013-03-17 05:30:00,
2013-03-17 00:31:00,19.8,14.3,28.84,North,0,0.0,0.0,79,0.00,,,0.00,WUHU216HW,2013-03-17 05:31:00,
2013-03-17 00:35:00,19.8,14.3,28.84,North,0,0.0,0.0,79,0.00,,,0.00,WUHU216HW,2013-03-17 05:35:00,
2013-03-17 00:36:00,19.8,14.3,28.84,North,0,0.0,0.0,79,0.00,,,0.00,WUHU216HW,2013-03-17 05:36:00,
2013-03-17 00:38:00,19.8,14.3,28.84,North,0,0.0,0.0,79,0.00,,,0.00,WUHU216HW,2013-03-17 05:38:00,
2013-03-17 00:59:00,19.6,14.1,28.84,North,0,0.0,0.0,79,0.00,,,0.00,WUHU216HW,2013-03-17 05:59:00,
2013-03-17 01:00:00,19.6,14.1,28.84,North,0,0.0,0.0,79,0.00,,,0.00,WUHU216HW,2013-03-17 06:00:00,
2013-03-17 01:05:00,19.6,14.1,28.84,North,0,0.0,0.0,79,0.00,,,0.00,WUHU216HW,2013-03-17 06:05:00,
2013-03-17 01:06:00,19.6,14.1,28.84,North,0,0.0,0.0,79,0.00,,,0.00,WUHU216HW,2013-03-17 06:06:00,
2013-03-17 01:07:00,19.6,14.1,28.84,North,0,0.0,0.0,79,0.00,,,0.00,WUHU216HW,2013-03-17 06:07:00,
2013-03-17 01:30:00,19.1,13.6,28.84,North,0,0.0,0.0,79,0.00,,,0.00,WUHU216HW,2013-03-17 06:30:00,
2013-03-17 01:32:00,19.1,13.6,28.84,North,0,0.0,0.0,79,0.00,,,0.00,WUHU216HW,2013-03-17 06:32:00,
2013-03-17 01:35:00,19.1,13.6,28.84,North,0,0.0,0.0,79,0.00,,,0.00,WUHU216HW,2013-03-17 06:35:00,
2013-03-17 01:36:00,19.1,13.6,28.84,North,0,0.0,0.0,79,0.00,,,0.00,WUHU216HW,2013-03-17 06:36:00,
2013-03-17 01:37:00,19.1,13.6,28.84,North,0,0.0,0.0,79,0.00,,,0.00,WUHU216HW,2013-03-17 06:37:00,
2013-03-17 01:59:00,18.4,13.1,28.83,North,0,0.0,0.0,80,0.00,,,0.00,WUHU216HW,2013-03-17 06:59:00,
2013-03-17 02:00:00,18.4,13.1,28.83,North,0,0.0,0.0,80,0.00,,,0.00,WUHU216HW,2013-03-17 07:00:00,
2013-03-17 02:02:00,18.4,13.1,28.83,North,0,0.0,0.0,80,0.00,,,0.00,WUHU216HW,2013-03-17 07:02:00,
2013-03-17 02:05:00,18.4,13.1,28.83,North,0,0.0,0.0,80,0.00,,,0.00,WUHU216HW,2013-03-17 07:05:00,
2013-03-17 02:06:00,18.4,13.1,28.83,North,0,0.0,0.0,80,0.00,,,0.00,WUHU216HW,2013-03-17 07:06:00,
2013-03-17 02:07:00,18.4,13.1,28.83,North,0,0.0,0.0,80,0.00,,,0.00,WUHU216HW,2013-03-17 07:07:00,
2013-03-17 02:08:00,18.4,13.1,28.83,North,0,0.0,0.0,80,0.00,,,0.00,WUHU216HW,2013-03-17 07:08:00,
2013-03-17 02:29:00,17.3,12.1,28.82,North,0,0.0,0.0,80,0.00,,,0.00,WUHU216HW,2013-03-17 07:29:00,
2013-03-17 02:30:00,17.3,12.1,28.82,North,0,0.0,0.0,80,0.00,,,0.00,WUHU216HW,2013-03-17 07:30:00,
2013-03-17 02:34:00,17.3,12.1,28.82,North,0,0.0,0.0,80,0.00,,,0.00,WUHU216HW,2013-03-17 07:34:00,
2013-03-17 02:35:00,17.3,12.1,28.82,North,0,0.0,0.0,80,0.00,,,0.00,WUHU216HW,2013-03-17 07:35:00,
2013-03-17 02:36:00,17.3,12.1,28.82,North,0,0.0,0.0,80,0.00,,,0.00,WUHU216HW,2013-03-17 07:36:00,
2013-03-17 02:39:00,17.3,12.1,28.82,North,0,0.0,0.0,80,0.00,,,0.00,WUHU216HW,2013-03-17 07:39:00,
2013-03-17 03:00:00,16.7,11.9,28.81,North,0,0.0,0.0,81,0.00,,,0.00,WUHU216HW,2013-03-17 08:00:00,
2013-03-17 03:03:00,16.7,11.9,28.81,North,0,0.0,0.0,81,0.00,,,0.00,WUHU216HW,2013-03-17 08:03:00,
2013-03-17 03:05:00,16.7,11.9,28.81,North,0,0.0,0.0,81,0.00,,,0.00,WUHU216HW,2013-03-17 08:05:00,
2013-03-17 03:06:00,16.7,11.9,28.81,North,0,0.0,0.0,81,0.00,,,0.00,WUHU216HW,2013-03-17 08:06:00,
2013-03-17 03:08:00,16.7,11.9,28.81,North,0,0.0,0.0,81,0.00,,,0.00,WUHU216HW,2013-03-17 08:08:00,
2013-03-17 03:30:00,16.2,11.6,28.80,North,0,0.0,0.0,82,0.00,,,0.00,WUHU216HW,2013-03-17 08:30:00,
2013-03-17 03:31:00,16.2,11.6,28.80,North,0,0.0,0.0,82,0.00,,,0.00,WUHU216HW,2013-03-17 08:31:00,
2013-03-17 03:32:00,16.2,11.6,28.80,North,0,0.0,0.0,82,0.00,,,0.00,WUHU216HW,2013-03-17 08:32:00,
2013-03-17 03:35:00,16.2,11.6,28.80,North,0,0.0,0.0,82,0.00,,,0.00,WUHU216HW,2013-03-17 08:35:00,
2013-03-17 03:37:00,16.2,11.6,28.80,North,0,0.0,0.0,82,0.00,,,0.00,WUHU216HW,2013-03-17 08:37:00,
2013-03-17 04:00:00,15.8,11.4,28.79,North,0,0.0,0.0,82,0.00,,,0.00,WUHU216HW,2013-03-17 09:00:00,
2013-03-17 04:01:00,15.8,11.4,28.79,North,0,0.0,0.0,82,0.00,,,0.00,WUHU216HW,2013-03-17 09:01:00,
2013-03-17 04:02:00,15.8,11.4,28.79,North,0,0.0,0.0,82,0.00,,,0.00,WUHU216HW,2013-03-17 09:02:00,
2013-03-17 04:05:00,15.8,11.4,28.79,North,0,0.0,0.0,82,0.00,,,0.00,WUHU216HW,2013-03-17 09:05:00,
2013-03-17 04:07:00,15.8,11.4,28.79,North,0,0.0,0.0,82,0.00,,,0.00,WUHU216HW,2013-03-17 09:07:00,
2013-03-17 04:30:00,15.3,11.3,28.78,North,0,0.0,0.0,84,0.00,,,0.00,WUHU216HW,2013-03-17 09:30:00,
2013-03-17 04:31:00,15.3,11.3,28.78,North,0,0.0,0.0,84,0.00,,,0.00,WUHU216HW,2013-03-17 09:31:00,
2013-03-17 04:35:00,15.3,11.3,28.78,North,0,0.0,0.0,84,0.00,,,0.00,WUHU216HW,2013-03-17 09:35:00,
2013-03-17 04:36:00,15.3,11.3,28.78,North,0,0.0,0.0,84,0.00,,,0.00,WUHU216HW,2013-03-17 09:36:00,
2013-03-17 04:37:00,15.3,11.3,28.78,North,0,0.0,0.0,84,0.00,,,0.00,WUHU216HW,2013-03-17 09:37:00,
2013-03-17 05:00:00,14.8,10.8,28.76,North,0,0.0,0.0,84,0.00,,,0.00,WUHU216HW,2013-03-17 10:00:00,
2013-03-17 05:01:00,14.8,10.8,28.76,North,0,0.0,0.0,84,0.00,,,0.00,WUHU216HW,2013-03-17 10:01:00,
2013-03-17 05:06:00,14.8,10.8,28.76,North,0,0.0,0.0,84,0.00,,,0.00,WUHU216HW,2013-03-17 10:06:00,
2013-03-17 05:07:00,14.8,10.8,28.76,North,0,0.0,0.0,84,0.00,,,0.00,WUHU216HW,2013-03-17 10:07:00,
2013-03-17 05:08:00,14.8,10.8,28.76,North,0,0.0,0.0,84,0.00,,,0.00,WUHU216HW,2013-03-17 10:08:00,
2013-03-17 05:30:00,14.6,10.6,28.76,North,0,0.0,0.0,84,0.00,,,0.00,WUHU216HW,2013-03-17 10:30:00,
2013-03-17 05:31:00,14.6,10.6,28.76,North,0,0.0,0.0,84,0.00,,,0.00,WUHU216HW,2013-03-17 10:31:00,
2013-03-17 05:32:00,14.6,10.6,28.76,North,0,0.0,0.0,84,0.00,,,0.00,WUHU216HW,2013-03-17 10:32:00,
2013-03-17 05:35:00,14.6,10.6,28.76,North,0,0.0,0.0,84,0.00,,,0.00,WUHU216HW,2013-03-17 10:35:00,
2013-03-17 05:36:00,14.6,10.6,28.76,North,0,0.0,0.0,84,0.00,,,0.00,WUHU216HW,2013-03-17 10:36:00,
2013-03-17 05:37:00,14.6,10.6,28.76,North,0,0.0,0.0,84,0.00,,,0.00,WUHU216HW,2013-03-17 10:37:00,
2013-03-17 05:38:00,14.6,10.6,28.76,North,0,0.0,0.0,84,0.00,,,0.00,WUHU216HW,2013-03-17 10:38:00,
2013-03-17 06:00:00,14.8,10.3,28.77,North,0,0.0,0.0,82,0.00,,,0.00,WUHU216HW,2013-03-17 11:00:00,
2013-03-17 06:03:00,14.8,10.3,28.77,North,0,0.0,0.0,82,0.00,,,0.00,WUHU216HW,2013-03-17 11:03:00,
2013-03-17 06:05:00,14.8,10.3,28.77,North,0,0.0,0.0,82,0.00,,,0.00,WUHU216HW,2013-03-17 11:05:00,
2013-03-17 06:06:00,14.8,10.3,28.77,North,0,0.0,0.0,82,0.00,,,0.00,WUHU216HW,2013-03-17 11:06:00,
2013-03-17 06:07:00,14.8,10.3,28.77,North,0,0.0,0.0,82,0.00,,,0.00,WUHU216HW,2013-03-17 11:07:00,
2013-03-17 06:08:00,14.8,10.3,28.77,North,0,0.0,0.0,82,0.00,,,0.00,WUHU216HW,2013-03-17 11:08:00,
2013-03-17 06:30:00,14.6,10.4,28.79,North,0,0.0,0.0,83,0.00,,,0.00,WUHU216HW,2013-03-17 11:30:00,
2013-03-17 06:31:00,14.6,10.4,28.79,North,0,0.0,0.0,83,0.00,,,0.00,WUHU216HW,2013-03-17 11:31:00,
2013-03-17 06:32:00,14.6,10.4,28.79,North,0,0.0,0.0,83,0.00,,,0.00,WUHU216HW,2013-03-17 11:32:00,
2013-03-17 06:36:00,14.6,10.4,28.79,North,0,0.0,0.0,83,0.00,,,0.00,WUHU216HW,2013-03-17 11:36:00,
2013-03-17 06:37:00,14.6,10.4,28.79,North,0,0.0,0.0,83,0.00,,,0.00,WUHU216HW,2013-03-17 11:37:00,
2013-03-17 06:38:00,14.6,10.4,28.79,North,0,0.0,0.0,83,0.00,,,0.00,WUHU216HW,2013-03-17 11:38:00,
2013-03-17 07:00:00,14.4,9.9,28.79,North,0,0.0,0.0,82,0.00,,,0.00,WUHU216HW,2013-03-17 12:00:00,
2013-03-17 07:01:00,14.4,9.9,28.79,North,0,0.0,0.0,82,0.00,,,0.00,WUHU216HW,2013-03-17 12:01:00,
2013-03-17 07:05:00,14.4,9.9,28.79,North,0,0.0,0.0,82,0.00,,,0.00,WUHU216HW,2013-03-17 12:05:00,
2013-03-17 07:06:00,14.4,9.9,28.79,North,0,0.0,0.0,82,0.00,,,0.00,WUHU216HW,2013-03-17 12:06:00,
2013-03-17 07:07:00,14.4,9.9,28.79,North,0,0.0,0.0,82,0.00,,,0.00,WUHU216HW,2013-03-17 12:07:00,
2013-03-17 07:29:00,14.2,9.7,28.79,North,0,0.0,0.0,82,0.00,,,0.00,WUHU216HW,2013-03-17 12:29:00,
2013-03-17 07:30:00,14.2,9.7,28.79,North,0,0.0,0.0,82,0.00,,,0.00,WUHU216HW,2013-03-17 12:30:00,
2013-03-17 07:31:00,14.2,9.7,28.79,North,0,0.0,0.0,82,0.00,,,0.00,WUHU216HW,2013-03-17 12:31:00,
2013-03-17 07:33:00,14.2,9.7,28.79,North,0,0.0,0.0,82,0.00,,,0.00,WUHU216HW,2013-03-17 12:33:00,
2013-03-17 07:35:00,14.2,9.7,28.79,North,0,0.0,0.0,82,0.00,,,0.00,WUHU216HW,2013-03-17 12:35:00,
2013-03-17 07:36:00,14.2,9.7,28.79,North,0,0.0,0.0,82,0.00,,,0.00,WUHU216HW,2013-03-17 12:36:00,
2013-03-17 07:38:00,14.2,9.7,28.79,North,0,0.0,0.0,82,0.00,,,0.00,WUHU216HW,2013-03-17 12:38:00,
2013-03-17 07:39:00,14.2,9.7,28.79,North,0,0.0,0.0,82,0.00,,,0.00,WUHU216HW,2013-03-17 12:39:00,
2013-03-17 08:00:00,14.6,9.5,28.78,North,0,0.0,0.0,80,0.00,,,0.00,WUHU216HW,2013-03-17 13:00:00,
2013-03-17 08:01:00,14.6,9.5,28.78,North,0,0.0,0.0,80,0.00,,,0.00,WUHU216HW,2013-03-17 13:01:00,
2013-03-17 08:02:00,14.6,9.5,28.78,North,0,0.0,0.0,80,0.00,,,0.00,WUHU216HW,2013-03-17 13:02:00,
2013-03-17 08:05:00,14.6,9.5,28.78,North,0,0.0,0.0,80,0.00,,,0.00,WUHU216HW,2013-03-17 13:05:00,
2013-03-17 08:06:00,14.6,9.5,28.78,North,0,0.0,0.0,80,0.00,,,0.00,WUHU216HW,2013-03-17 13:06:00,
2013-03-17 08:07:00,14.6,9.5,28.78,North,0,0.0,0.0,80,0.00,,,0.00,WUHU216HW,2013-03-17 13:07:00,
2013-03-17 08:08:00,14.6,9.5,28.78,North,0,0.0,0.0,80,0.00,,,0.00,WUHU216HW,2013-03-17 13:08:00,
2013-03-17 08:30:00,16.4,10.7,28.79,North,0,0.0,0.0,78,0.00,,,0.00,WUHU216HW,2013-03-17 13:30:00,
2013-03-17 08:31:00,16.4,10.7,28.79,North,0,0.0,0.0,78,0.00,,,0.00,WUHU216HW,2013-03-17 13:31:00,
2013-03-17 08:35:00,16.4,10.7,28.79,North,0,0.0,0.0,78,0.00,,,0.00,WUHU216HW,2013-03-17 13:35:00,
2013-03-17 08:36:00,16.4,10.7,28.79,North,0,0.0,0.0,78,0.00,,,0.00,WUHU216HW,2013-03-17 13:36:00,
2013-03-17 08:38:00,16.4,10.7,28.79,North,0,0.0,0.0,78,0.00,,,0.00,WUHU216HW,2013-03-17 13:38:00,
2013-03-17 09:00:00,17.8,10.9,28.79,North,0,0.0,0.0,74,0.00,,,0.00,WUHU216HW,2013-03-17 14:00:00,
2013-03-17 09:01:00,17.8,10.9,28.79,North,0,0.0,0.0,74,0.00,,,0.00,WUHU216HW,2013-03-17 14:01:00,
2013-03-17 09:05:00,17.8,10.9,28.79,North,0,0.0,0.0,74,0.00,,,0.00,WUHU216HW,2013-03-17 14:05:00,
2013-03-17 09:06:00,17.8,10.9,28.79,North,0,0.0,0.0,74,0.00,,,0.00,WUHU216HW,2013-03-17 14:06:00,
2013-03-17 09:07:00,17.8,10.9,28.79,North,0,0.0,0.0,74,0.00,,,0.00,WUHU216HW,2013-03-17 14:07:00,
2013-03-17 09:09:00,17.8,10.9,28.79,North,0,0.0,0.0,74,0.00,,,0.00,WUHU216HW,2013-03-17 14:09:00,
2013-03-17 09:30:00,18.7,11.7,28.78,North,0,0.0,0.0,74,0.00,,,0.00,WUHU216HW,2013-03-17 14:30:00,
2013-03-17 09:31:00,18.7,11.7,28.78,North,0,0.0,0.0,74,0.00,,,0.00,WUHU216HW,2013-03-17 14:31:00,
2013-03-17 09:35:00,18.7,11.7,28.78,North,0,0.0,0.0,74,0.00,,,0.00,WUHU216HW,2013-03-17 14:35:00,
2013-03-17 09:37:00,18.7,11.7,28.78,North,0,0.0,0.0,74,0.00,,,0.00,WUHU216HW,2013-03-17 14:37:00,
2013-03-17 09:38:00,18.7,11.7,28.78,North,0,0.0,0.0,74,0.00,,,0.00,WUHU216HW,2013-03-17 14:38:00,
2013-03-17 10:00:00,20.0,13.2,28.77,North,0,0.0,0.0,75,0.00,,,0.00,WUHU216HW,2013-03-17 15:00:00,
2013-03-17 10:01:00,20.0,13.2,28.77,North,0,0.0,0.0,75,0.00,,,0.00,WUHU216HW,2013-03-17 15:01:00,
2013-03-17 10:03:00,20.0,13.2,28.77,North,0,0.0,0.0,75,0.00,,,0.00,WUHU216HW,2013-03-17 15:03:00,
2013-03-17 10:05:00,20.0,13.2,28.77,North,0,0.0,0.0,75,0.00,,,0.00,WUHU216HW,2013-03-17 15:05:00,
2013-03-17 10:06:00,20.0,13.2,28.77,North,0,0.0,0.0,75,0.00,,,0.00,WUHU216HW,2013-03-17 15:06:00,
2013-03-17 10:07:00,20.0,13.2,28.77,North,0,0.0,0.0,75,0.00,,,0.00,WUHU216HW,2013-03-17 15:07:00,
2013-03-17 10:08:00,20.0,13.2,28.77,North,0,0.0,0.0,75,0.00,,,0.00,WUHU216HW,2013-03-17 15:08:00,
2013-03-17 10:30:00,21.4,14.7,28.77,North,0,0.0,0.0,75,0.00,,,0.00,WUHU216HW,2013-03-17 15:30:00,
2013-03-17 10:31:00,21.4,14.7,28.77,North,0,0.0,0.0,75,0.00,,,0.00,WUHU216HW,2013-03-17 15:31:00,
2013-03-17 10:33:00,21.4,14.7,28.77,North,0,0.0,0.0,75,0.00,,,0.00,WUHU216HW,2013-03-17 15:33:00,
2013-03-17 10:36:00,21.4,14.7,28.77,North,0,0.0,0.0,75,0.00,,,0.00,WUHU216HW,2013-03-17 15:36:00,
2013-03-17 10:38:00,21.4,14.7,28.77,North,0,0.0,0.0,75,0.00,,,0.00,WUHU216HW,2013-03-17 15:38:00,
2013-03-17 11:00:00,23.2,17.1,28.75,North,0,0.0,0.0,77,0.00,,,0.00,WUHU216HW,2013-03-17 16:00:00,
2013-03-17 11:01:00,23.2,17.1,28.75,North,0,0.0,0.0,77,0.00,,,0.00,WUHU216HW,2013-03-17 16:01:00,
2013-03-17 11:05:00,23.2,17.1,28.75,North,0,0.0,0.0,77,0.00,,,0.00,WUHU216HW,2013-03-17 16:05:00,
2013-03-17 11:06:00,23.2,17.1,28.75,North,0,0.0,0.0,77,0.00,,,0.00,WUHU216HW,2013-03-17 16:06:00,
2013-03-17 11:07:00,23.2,17.1,28.75,North,0,0.0,0.0,77,0.00,,,0.00,WUHU216HW,2013-03-17 16:07:00,
2013-03-17 11:30:00,24.3,17.8,28.74,North,0,0.0,0.0,76,0.00,,,0.00,WUHU216HW,2013-03-17 16:30:00,
2013-03-17 11:31:00,24.3,17.8,28.74,North,0,0.0,0.0,76,0.00,,,0.00,WUHU216HW,2013-03-17 16:31:00,
2013-03-17 11:34:00,24.3,17.8,28.74,North,0,0.0,0.0,76,0.00,,,0.00,WUHU216HW,2013-03-17 16:34:00,
2013-03-17 11:35:00,24.3,17.8,28.74,North,0,0.0,0.0,76,0.00,,,0.00,WUHU216HW,2013-03-17 16:35:00,
2013-03-17 11:37:00,24.3,17.8,28.74,North,0,0.0,0.0,76,0.00,,,0.00,WUHU216HW,2013-03-17 16:37:00,
2013-03-17 11:59:00,24.8,18.6,28.72,North,0,0.0,0.0,77,0.00,,,0.00,WUHU216HW,2013-03-17 16:59:00,
2013-03-17 12:00:00,24.8,18.6,28.72,North,0,0.0,0.0,77,0.00,,,0.00,WUHU216HW,2013-03-17 17:00:00,
2013-03-17 12:02:00,24.8,18.6,28.72,North,0,0.0,0.0,77,0.00,,,0.00,WUHU216HW,2013-03-17 17:02:00,
2013-03-17 12:05:00,24.8,18.6,28.72,North,0,0.0,0.0,77,0.00,,,0.00,WUHU216HW,2013-03-17 17:05:00,
2013-03-17 12:07:00,24.8,18.6,28.72,North,0,0.0,0.0,77,0.00,,,0.00,WUHU216HW,2013-03-17 17:07:00,
2013-03-17 12:08:00,24.8,18.6,28.72,North,0,0.0,0.0,77,0.00,,,0.00,WUHU216HW,2013-03-17 17:08:00,
2013-03-17 12:30:00,27.7,21.7,28.69,North,0,0.0,0.0,78,0.00,,,0.00,WUHU216HW,2013-03-17 17:30:00,
2013-03-17 12:31:00,27.7,21.7,28.69,North,0,0.0,0.0,78,0.00,,,0.00,WUHU216HW,2013-03-17 17:31:00,
2013-03-17 12:35:00,27.7,21.7,28.69,North,0,0.0,0.0,78,0.00,,,0.00,WUHU216HW,2013-03-17 17:35:00,
2013-03-17 12:36:00,27.7,21.7,28.69,North,0,0.0,0.0,78,0.00,,,0.00,WUHU216HW,2013-03-17 17:36:00,
2013-03-17 12:59:00,27.7,21.7,28.68,North,0,0.0,0.0,78,0.00,,,0.00,WUHU216HW,2013-03-17 17:59:00,
2013-03-17 13:00:00,27.7,21.7,28.68,North,0,0.0,0.0,78,0.00,,,0.00,WUHU216HW,2013-03-17 18:00:00,
2013-03-17 13:01:00,27.7,21.7,28.68,North,0,0.0,0.0,78,0.00,,,0.00,WUHU216HW,2013-03-17 18:01:00,
2013-03-17 13:05:00,27.7,21.7,28.68,North,0,0.0,0.0,78,0.00,,,0.00,WUHU216HW,2013-03-17 18:05:00,
2013-03-17 13:07:00,27.7,21.7,28.68,North,0,0.0,0.0,78,0.00,,,0.00,WUHU216HW,2013-03-17 18:07:00,
2013-03-17 13:30:00,27.0,21.6,28.66,North,0,0.0,0.0,80,0.00,,,0.00,WUHU216HW,2013-03-17 18:30:00,
2013-03-17 13:31:00,27.0,21.6,28.66,North,0,0.0,0.0,80,0.00,,,0.00,WUHU216HW,2013-03-17 18:31:00,
2013-03-17 13:35:00,27.0,21.6,28.66,North,0,0.0,0.0,80,0.00,,,0.00,WUHU216HW,2013-03-17 18:35:00,
2013-03-17 13:37:00,27.0,21.6,28.66,North,0,0.0,0.0,80,0.00,,,0.00,WUHU216HW,2013-03-17 18:37:00,
2013-03-17 13:38:00,27.0,21.6,28.66,North,0,0.0,0.0,80,0.00,,,0.00,WUHU216HW,2013-03-17 18:38:00,
2013-03-17 13:59:00,28.3,22.6,28.63,North,0,0.0,0.0,79,0.00,,,0.00,WUHU216HW,2013-03-17 18:59:00,
2013-03-17 14:00:00,28.3,22.6,28.63,North,0,0.0,0.0,79,0.00,,,0.00,WUHU216HW,2013-03-17 19:00:00,
2013-03-17 14:01:00,28.3,22.6,28.63,North,0,0.0,0.0,79,0.00,,,0.00,WUHU216HW,2013-03-17 19:01:00,
2013-03-17 14:02:00,28.3,22.6,28.63,North,0,0.0,0.0,79,0.00,,,0.00,WUHU216HW,2013-03-17 19:02:00,
2013-03-17 14:05:00,28.3,22.6,28.63,North,0,0.0,0.0,79,0.00,,,0.00,WUHU216HW,2013-03-17 19:05:00,
2013-03-17 14:06:00,28.3,22.6,28.63,North,0,0.0,0.0,79,0.00,,,0.00,WUHU216HW,2013-03-17 19:06:00,
2013-03-17 14:07:00,28.3,22.6,28.63,North,0,0.0,0.0,79,0.00,,,0.00,WUHU216HW,2013-03-17 19:07:00,
2013-03-17 14:30:00,29.2,23.5,28.60,North,0,0.0,0.0,79,0.00,,,0.00,WUHU216HW,2013-03-17 19:30:00,
2013-03-17 14:35:00,29.2,23.5,28.60,North,0,0.0,0.0,79,0.00,,,0.00,WUHU216HW,2013-03-17 19:35:00,
2013-03-17 14:36:00,29.2,23.5,28.60,North,0,0.0,0.0,79,0.00,,,0.00,WUHU216HW,2013-03-17 19:36:00,
2013-03-17 14:37:00,29.2,23.5,28.60,North,0,0.0,0.0,79,0.00,,,0.00,WUHU216HW,2013-03-17 19:37:00,
2013-03-17 14:38:00,29.2,23.5,28.60,North,0,0.0,0.0,79,0.00,,,0.00,WUHU216HW,2013-03-17 19:38:00,
2013-03-17 14:59:00,29.3,23.7,28.60,North,0,0.0,0.0,79,0.00,,,0.00,WUHU216HW,2013-03-17 19:59:00,
2013-03-17 15:00:00,29.3,23.7,28.60,North,0,0.0,0.0,79,0.00,,,0.00,WUHU216HW,2013-03-17 20:00:00,
2013-03-17 15:01:00,29.3,23.7,28.60,North,0,0.0,0.0,79,0.00,,,0.00,WUHU216HW,2013-03-17 20:01:00,
2013-03-17 15:05:00,29.3,23.7,28.60,North,0,0.0,0.0,79,0.00,,,0.00,WUHU216HW,2013-03-17 20:05:00,
2013-03-17 15:06:00,29.3,23.7,28.60,North,0,0.0,0.0,79,0.00,,,0.00,WUHU216HW,2013-03-17 20:06:00,
2013-03-17 15:07:00,29.3,23.7,28.60,North,0,0.0,0.0,79,0.00,,,0.00,WUHU216HW,2013-03-17 20:07:00,
2013-03-17 15:30:00,30.2,24.2,28.59,North,0,0.0,0.0,78,0.00,,,0.00,WUHU216HW,2013-03-17 20:30:00,
2013-03-17 15:31:00,30.2,24.2,28.59,North,0,0.0,0.0,78,0.00,,,0.00,WUHU216HW,2013-03-17 20:31:00,
2013-03-17 15:35:00,30.2,24.2,28.59,North,0,0.0,0.0,78,0.00,,,0.00,WUHU216HW,2013-03-17 20:35:00,
2013-03-17 15:36:00,30.2,24.2,28.59,North,0,0.0,0.0,78,0.00,,,0.00,WUHU216HW,2013-03-17 20:36:00,
2013-03-17 15:37:00,30.2,24.2,28.59,North,0,0.0,0.0,78,0.00,,,0.00,WUHU216HW,2013-03-17 20:37:00,
2013-03-17 15:59:00,30.8,24.8,28.58,North,0,0.0,0.0,78,0.00,,,0.00,WUHU216HW,2013-03-17 20:59:00,
2013-03-17 16:00:00,30.8,24.8,28.58,North,0,0.0,0.0,78,0.00,,,0.00,WUHU216HW,2013-03-17 21:00:00,
2013-03-17 16:01:00,30.8,24.8,28.58,North,0,0.0,0.0,78,0.00,,,0.00,WUHU216HW,2013-03-17 21:01:00,
2013-03-17 16:02:00,30.8,24.8,28.58,North,0,0.0,0.0,78,0.00,,,0.00,WUHU216HW,2013-03-17 21:02:00,
2013-03-17 16:05:00,30.8,24.8,28.58,North,0,0.0,0.0,78,0.00,,,0.00,WUHU216HW,2013-03-17 21:05:00,
2013-03-17 16:07:00,30.8,24.8,28.58,North,0,0.0,0.0,78,0.00,,,0.00,WUHU216HW,2013-03-17 21:07:00,
2013-03-17 16:08:00,30.8,24.8,28.58,North,0,0.0,0.0,78,0.00,,,0.00,WUHU216HW,2013-03-17 21:08:00,
2013-03-17 16:30:00,31.3,25.6,28.56,North,0,0.0,0.0,79,0.00,,,0.00,WUHU216HW,2013-03-17 21:30:00,
2013-03-17 16:31:00,31.3,25.6,28.56,North,0,0.0,0.0,79,0.00,,,0.00,WUHU216HW,2013-03-17 21:31:00,
2013-03-17 16:32:00,31.3,25.6,28.56,North,0,0.0,0.0,79,0.00,,,0.00,WUHU216HW,2013-03-17 21:32:00,
2013-03-17 16:35:00,31.3,25.6,28.56,North,0,0.0,0.0,79,0.00,,,0.00,WUHU216HW,2013-03-17 21:35:00,
2013-03-17 16:36:00,31.3,25.6,28.56,North,0,0.0,0.0,79,0.00,,,0.00,WUHU216HW,2013-03-17 21:36:00,
2013-03-17 16:38:00,31.3,25.6,28.56,North,0,0.0,0.0,79,0.00,,,0.00,WUHU216HW,2013-03-17 21:38:00,
2013-03-17 16:59:00,31.0,25.2,28.56,North,0,0.0,0.0,79,0.00,,,0.00,WUHU216HW,2013-03-17 21:59:00,
2013-03-17 17:00:00,31.0,25.2,28.56,North,0,0.0,0.0,79,0.00,,,0.00,WUHU216HW,2013-03-17 22:00:00,
2013-03-17 17:01:00,31.0,25.2,28.56,North,0,0.0,0.0,79,0.00,,,0.00,WUHU216HW,2013-03-17 22:01:00,
2013-03-17 17:05:00,31.0,25.2,28.56,North,0,0.0,0.0,79,0.00,,,0.00,WUHU216HW,2013-03-17 22:05:00,
2013-03-17 17:06:00,31.0,25.2,28.56,North,0,0.0,0.0,79,0.00,,,0.00,WUHU216HW,2013-03-17 22:06:00,
2013-03-17 17:30:00,31.1,25.7,28.54,North,0,0.0,0.0,80,0.00,,,0.00,WUHU216HW,2013-03-17 22:30:00,
2013-03-17 17:31:00,31.1,25.7,28.54,North,0,0.0,0.0,80,0.00,,,0.00,WUHU216HW,2013-03-17 22:31:00,
2013-03-17 17:32:00,31.1,25.7,28.54,North,0,0.0,0.0,80,0.00,,,0.00,WUHU216HW,2013-03-17 22:32:00,
2013-03-17 17:36:00,31.1,25.7,28.54,North,0,0.0,0.0,80,0.00,,,0.00,WUHU216HW,2013-03-17 22:36:00,
2013-03-17 17:37:00,31.1,25.7,28.54,North,0,0.0,0.0,80,0.00,,,0.00,WUHU216HW,2013-03-17 22:37:00,
2013-03-17 18:00:00,31.3,25.9,28.53,North,0,0.0,0.0,80,0.00,,,0.00,WUHU216HW,2013-03-17 23:00:00,
2013-03-17 18:01:00,31.3,25.9,28.53,North,0,0.0,0.0,80,0.00,,,0.00,WUHU216HW,2013-03-17 23:01:00,
2013-03-17 18:05:00,31.3,25.9,28.53,North,0,0.0,0.0,80,0.00,,,0.00,WUHU216HW,2013-03-17 23:05:00,
2013-03-17 18:07:00,31.3,25.9,28.53,North,0,0.0,0.0,80,0.00,,,0.00,WUHU216HW,2013-03-17 23:07:00,
2013-03-17 18:30:00,31.1,26.3,28.51,North,0,0.0,0.0,82,0.00,,,0.00,WUHU216HW,2013-03-17 23:30:00,
2013-03-17 18:31:00,31.1,26.3,28.51,North,0,0.0,0.0,82,0.00,,,0.00,WUHU216HW,2013-03-17 23:31:00,
2013-03-17 18:32:00,31.1,26.3,28.51,North,0,0.0,0.0,82,0.00,,,0.00,WUHU216HW,2013-03-17 23:32:00,
2013-03-17 18:35:00,31.1,26.3,28.51,North,0,0.0,0.0,82,0.00,,,0.00,WUHU216HW,2013-03-17 23:35:00,
2013-03-17 18:36:00,31.1,26.3,28.51,North,0,0.0,0.0,82,0.00,,,0.00,WUHU216HW,2013-03-17 23:36:00,
2013-03-17 18:37:00,31.1,26.3,28.51,North,0,0.0,0.0,82,0.00,,,0.00,WUHU216HW,2013-03-17 23:37:00,
2013-03-17 18:38:00,31.1,26.3,28.51,North,0,0.0,0.0,82,0.00,,,0.00,WUHU216HW,2013-03-17 23:38:00,
2013-03-17 19:00:00,31.0,26.1,28.50,North,0,0.0,0.0,82,0.00,,,0.00,WUHU216HW,2013-03-18 00:00:00,
2013-03-17 19:02:00,31.0,26.1,28.50,North,0,0.0,0.0,82,0.00,,,0.00,WUHU216HW,2013-03-18 00:02:00,
2013-03-17 19:05:00,31.0,26.1,28.50,North,0,0.0,0.0,82,0.00,,,0.00,WUHU216HW,2013-03-18 00:05:00,
2013-03-17 19:07:00,31.0,26.1,28.50,North,0,0.0,0.0,82,0.00,,,0.00,WUHU216HW,2013-03-18 00:07:00,
2013-03-17 19:30:00,31.0,26.5,28.50,North,0,0.0,0.0,83,0.00,,,0.00,WUHU216HW,2013-03-18 00:30:00,
2013-03-17 19:35:00,31.0,26.5,28.50,North,0,0.0,0.0,83,0.00,,,0.00,WUHU216HW,2013-03-18 00:35:00,
2013-03-17 19:37:00,31.0,26.5,28.50,North,0,0.0,0.0,83,0.00,,,0.00,WUHU216HW,2013-03-18 00:37:00,
2013-03-17 20:00:00,31.1,27.2,28.50,North,0,0.0,0.0,85,0.00,,,0.00,WUHU216HW,2013-03-18 01:00:00,
2013-03-17 20:01:00,31.1,27.2,28.50,North,0,0.0,0.0,85,0.00,,,0.00,WUHU216HW,2013-03-18 01:01:00,
2013-03-17 20:05:00,31.1,27.2,28.50,North,0,0.0,0.0,85,0.00,,,0.00,WUHU216HW,2013-03-18 01:05:00,
2013-03-17 20:06:00,31.1,27.2,28.50,North,0,0.0,0.0,85,0.00,,,0.00,WUHU216HW,2013-03-18 01:06:00,
2013-03-17 20:07:00,31.1,27.2,28.50,North,0,0.0,0.0,85,0.00,,,0.00,WUHU216HW,2013-03-18 01:07:00,
2013-03-17 20:30:00,31.3,27.4,28.50,North,0,0.0,0.0,85,0.00,,,0.00,WUHU216HW,2013-03-18 01:30:00,
2013-03-17 20:31:00,31.3,27.4,28.50,North,0,0.0,0.0,85,0.00,,,0.00,WUHU216HW,2013-03-18 01:31:00,
2013-03-17 20:32:00,31.3,27.4,28.50,North,0,0.0,0.0,85,0.00,,,0.00,WUHU216HW,2013-03-18 01:32:00,
2013-03-17 20:36:00,31.3,27.4,28.50,North,0,0.0,0.0,85,0.00,,,0.00,WUHU216HW,2013-03-18 01:36:00,
2013-03-17 20:37:00,31.3,27.4,28.50,North,0,0.0,0.0,85,0.00,,,0.00,WUHU216HW,2013-03-18 01:37:00,
2013-03-17 21:00:00,31.0,27.3,28.50,North,0,0.0,0.0,86,0.00,,,0.00,WUHU216HW,2013-03-18 02:00:00,
2013-03-17 21:04:00,31.0,27.3,28.50,North,0,0.0,0.0,86,0.00,,,0.00,WUHU216HW,2013-03-18 02:04:00,
2013-03-17 21:05:00,31.0,27.3,28.50,North,0,0.0,0.0,86,0.00,,,0.00,WUHU216HW,2013-03-18 02:05:00,
2013-03-17 21:06:00,31.0,27.3,28.50,North,0,0.0,0.0,86,0.00,,,0.00,WUHU216HW,2013-03-18 02:06:00,
2013-03-17 21:09:00,31.0,27.3,28.50,North,0,0.0,0.0,86,0.00,,,0.00,WUHU216HW,2013-03-18 02:09:00,
2013-03-17 21:30:00,31.3,26.8,28.50,North,0,0.0,0.0,83,0.00,,,0.00,WUHU216HW,2013-03-18 02:30:00,
2013-03-17 21:31:00,31.3,26.8,28.50,North,0,0.0,0.0,83,0.00,,,0.00,WUHU216HW,2013-03-18 02:31:00,
2013-03-17 21:36:00,31.3,26.8,28.50,North,0,0.0,0.0,83,0.00,,,0.00,WUHU216HW,2013-03-18 02:36:00,
2013-03-17 21:38:00,31.3,26.8,28.50,North,0,0.0,0.0,83,0.00,,,0.00,WUHU216HW,2013-03-18 02:38:00,
2013-03-17 21:59:00,31.1,26.7,28.49,North,0,0.0,0.0,83,0.00,,,0.00,WUHU216HW,2013-03-18 02:59:00,
2013-03-17 22:00:00,31.1,26.7,28.49,North,0,0.0,0.0,83,0.00,,,0.00,WUHU216HW,2013-03-18 03:00:00,
2013-03-17 22:05:00,31.1,26.7,28.49,North,0,0.0,0.0,83,0.00,,,0.00,WUHU216HW,2013-03-18 03:05:00,
2013-03-17 22:06:00,31.1,26.7,28.49,North,0,0.0,0.0,83,0.00,,,0.00,WUHU216HW,2013-03-18 03:06:00,
2013-03-17 22:07:00,31.1,26.7,28.49,North,0,0.0,0.0,83,0.00,,,0.00,WUHU216HW,2013-03-18 03:07:00,
2013-03-17 22:30:00,31.0,27.0,28.48,North,0,0.0,0.0,85,0.00,,,0.00,WUHU216HW,2013-03-18 03:30:00,
2013-03-17 22:31:00,31.0,27.0,28.48,North,0,0.0,0.0,85,0.00,,,0.00,WUHU216HW,2013-03-18 03:31:00,
2013-03-17 22:36:00,31.0,27.0,28.48,North,0,0.0,0.0,85,0.00,,,0.00,WUHU216HW,2013-03-18 03:36:00,
2013-03-17 22:37:00,31.0,27.0,28.48,North,0,0.0,0.0,85,0.00,,,0.00,WUHU216HW,2013-03-18 03:37:00,
2013-03-17 22:39:00,31.0,27.0,28.48,North,0,0.0,0.0,85,0.00,,,0.00,WUHU216HW,2013-03-18 03:39:00,
2013-03-17 22:59:00,31.0,27.0,28.49,North,0,0.0,0.0,85,0.00,,,0.00,WUHU216HW,2013-03-18 03:59:00,
2013-03-17 23:00:00,31.0,27.0,28.49,North,0,0.0,0.0,85,0.00,,,0.00,WUHU216HW,2013-03-18 04:00:00,
2013-03-17 23:03:00,31.0,27.0,28.49,North,0,0.0,0.0,85,0.00,,,0.00,WUHU216HW,2013-03-18 04:03:00,
2013-03-17 23:05:00,31.0,27.0,28.49,North,0,0.0,0.0,85,0.00,,,0.00,WUHU216HW,2013-03-18 04:05:00,
2013-03-17 23:06:00,31.0,27.0,28.49,North,0,0.0,0.0,85,0.00,,,0.00,WUHU216HW,2013-03-18 04:06:00,
2013-03-17 23:08:00,31.0,27.0,28.49,North,0,0.0,0.0,85,0.00,,,0.00,WUHU216HW,2013-03-18 04:08:00,
2013-03-17 23:30:00,31.0,27.0,28.49,North,0,0.0,0.0,85,0.00,,,0.00,WUHU216HW,2013-03-18 04:30:00,
2013-03-17 23:32:00,31.0,27.0,28.49,North,0,0.0,0.0,85,0.00,,,0.00,WUHU216HW,2013-03-18 04:32:00,
2013-03-17 23:35:00,31.0,27.0,28.49,North,0,0.0,0.0,85,0.00,,,0.00,WUHU216HW,2013-03-18 04:35:00,
2013-03-17 23:36:00,31.0,27.0,28.49,North,0,0.0,0.0,85,0.00,,,0.00,WUHU216HW,2013-03-18 04:36:00,
2013-03-17 23:37:00,31.0,27.0,28.49,North,0,0.0,0.0,85,0.00,,,0.00,WUHU216HW,2013-03-18 04:37:00,
2013-03-17 23:59:00,30.6,26.9,28.47,North,0,0.0,0.0,86,0.00,,,0.00,WUHU216HW,2013-03-18 04:59:00,